GW5443 Weather Reports


time (UTC)temp
F
wind
direction
speed
knots
gust
knots
rain 1hr
in
rain 24hr
in
rain mn
in
humidity
%
barometer
mb
20260506124201 71 174 5.2 7.8 0.00 0.00 0.00 76 1016.0
20260506123704 71 210 5.2 7.8 0.00 0.00 0.00 76 1016.0
20260506123201 71 175 5.2 9.6 0.00 0.00 0.00 77 1016.0
20260506122702 70 174 3.5 6.1 0.00 0.00 0.00 79 1016.0
20260506122201 69 162 1.7 3.5 0.00 0.00 0.00 81 1016.0
20260506121701 69 203 3.5 5.2 0.00 0.00 0.00 83 1016.0
20260506121159 68 194 2.6 4.3 0.00 0.00 0.00 84 1016.0
20260506120702 67 185 2.6 4.3 0.00 0.00 0.00 85 1016.0
20260506115724 65 225 2.6 2.6 0.00 0.00 0.00 89 1016.0
20260506115203 64 186 2.6 3.5 0.00 0.00 0.00 92 1016.0
20260506114703 63 158 1.7 3.5 0.00 0.00 0.00 95 1016.0
20260506114201 62 0 0.0 0.0 0.00 0.00 0.00 96 1016.0
20260506113703 62 174 0.0 0.9 0.00 0.00 0.00 97 1016.0
20260506113204 61 0 0.0 0.0 0.00 0.00 0.00 97 1016.0
20260506112701 61 207 0.9 2.6 0.00 0.00 0.00 98 1016.0
20260506112201 61 188 0.9 2.6 0.00 0.00 0.00 98 1016.0
20260506111704 60 0 0.0 0.0 0.00 0.00 0.00 98 1016.0
20260506111203 60 0 0.0 0.0 0.00 0.00 0.00 98 1016.0
20260506110703 59 0 0.0 0.0 0.00 0.00 0.00 98 1016.0
20260506110200 58 0 0.0 0.0 0.00 0.00 0.00 98 1016.0
20260506105703 58 0 0.0 0.0 0.00 0.00 0.00 98 1016.0
20260506105201 57 0 0.0 0.0 0.00 0.00 0.00 98 1016.0
20260506104701 56 0 0.0 0.0 0.00 0.00 0.00 98 1016.0
20260506104203 56 0 0.0 0.0 0.00 0.00 0.00 99 1016.0
20260506103701 56 27 0.0 1.7 0.00 0.00 0.00 98 1016.0
20260506103203 55 0 0.0 0.0 0.00 0.00 0.00 98 1016.0
20260506102702 55 0 0.0 0.0 0.00 0.00 0.00 98 1016.0
20260506102201 55 0 0.0 0.0 0.00 0.00 0.00 98 1016.0
20260506101702 55 0 0.0 0.0 0.00 0.00 0.00 98 1016.0
20260506101203 55 0 0.0 0.0 0.00 0.00 0.00 98 1015.0
20260506100703 55 0 0.0 0.0 0.00 0.00 0.00 98 1015.0
20260506100204 55 0 0.0 0.0 0.00 0.00 0.00 98 1015.0
20260506095701 55 0 0.0 0.0 0.00 0.00 0.00 98 1015.0
20260506095201 55 0 0.0 0.0 0.00 0.00 0.00 98 1015.0
20260506094701 55 0 0.0 0.0 0.00 0.00 0.00 98 1015.0
20260506094201 55 0 0.0 0.0 0.00 0.00 0.00 98 1015.0
20260506093703 55 0 0.0 0.0 0.00 0.00 0.00 98 1016.0
20260506093203 55 0 0.0 0.0 0.00 0.00 0.00 98 1016.0
20260506092702 55 0 0.0 0.0 0.00 0.00 0.00 98 1016.0
20260506092202 55 0 0.0 0.0 0.00 0.00 0.00 98 1016.0
20260506091701 55 0 0.0 0.0 0.00 0.00 0.00 98 1016.0
20260506091202 55 0 0.0 0.0 0.00 0.00 0.00 98 1015.0
20260506090703 55 0 0.0 0.0 0.00 0.00 0.00 98 1016.0
20260506090203 55 104 0.0 0.9 0.00 0.00 0.00 98 1016.0
20260506085701 55 0 0.0 0.0 0.00 0.00 0.00 98 1016.0
20260506085201 56 0 0.0 0.0 0.00 0.00 0.00 98 1016.0
20260506084700 56 0 0.0 0.0 0.00 0.00 0.00 98 1016.0
20260506084201 56 0 0.0 0.0 0.00 0.00 0.00 98 1016.0
20260506083702 55 0 0.0 0.0 0.00 0.00 0.00 97 1016.0
20260506083202 55 0 0.0 0.0 0.00 0.00 0.00 97 1016.0
20260506082701 55 0 0.0 0.0 0.00 0.00 0.00 97 1016.0
20260506082201 55 0 0.0 0.0 0.00 0.00 0.00 97 1016.0
20260506081702 55 0 0.0 0.0 0.00 0.00 0.00 97 1016.0
20260506081202 56 0 0.0 0.0 0.00 0.00 0.00 97 1016.0
20260506080702 56 0 0.0 0.0 0.00 0.00 0.00 97 1016.0
20260506080203 56 0 0.0 0.0 0.00 0.00 0.00 97 1016.0
20260506073201 56 0 0.0 0.0 0.00 0.00 0.00 96 1016.0
20260506072233 56 0 0.0 0.0 0.00 0.00 0.00 96 1016.0
20260506071702 56 0 0.0 0.0 0.00 0.00 0.00 96 1016.0
20260506071202 56 0 0.0 0.0 0.00 0.00 0.00 96 1016.0
20260506070703 56 0 0.0 0.0 0.00 0.00 0.00 95 1016.0
20260506070203 56 0 0.0 0.0 0.00 0.00 0.00 95 1016.0
20260506062203 58 0 0.0 0.0 0.00 0.00 0.00 91 1016.0
20260506061700 59 0 0.0 0.0 0.00 0.00 0.00 91 1016.0
20260506061202 59 0 0.0 0.0 0.00 0.00 0.00 90 1016.0
20260506060702 59 0 0.0 0.0 0.00 0.00 0.00 90 1016.0
20260506060201 59 0 0.0 0.0 0.00 0.00 0.00 89 1016.0
20260506051201 61 199 0.9 1.7 0.00 0.00 0.00 86 1017.0
20260506050703 62 156 0.9 1.7 0.00 0.00 0.00 85 1017.0
20260506050201 62 240 0.9 1.7 0.00 0.00 0.00 85 1017.0
20260506044700 62 227 1.7 3.5 0.00 0.00 0.00 84 1017.0
20260506044200 63 215 2.6 3.5 0.00 0.00 0.00 83 1017.0
20260506043703 63 210 0.9 2.6 0.00 0.00 0.00 83 1017.0
20260506043201 63 232 1.7 2.6 0.00 0.00 0.00 83 1017.0
20260506042659 63 193 2.6 3.5 0.00 0.00 0.00 82 1017.0
20260506042202 63 213 0.9 3.5 0.00 0.00 0.00 82 1017.0
20260506041701 63 199 0.9 2.6 0.00 0.00 0.00 82 1017.0
20260506041201 63 243 0.0 1.7 0.00 0.00 0.00 81 1017.0
20260506040700 64 205 2.6 3.5 0.00 0.00 0.00 81 1017.0
20260506040201 64 206 1.7 3.5 0.00 0.00 0.00 80 1017.0
20260506035659 64 200 2.6 4.3 0.00 0.00 0.00 80 1017.0
20260506035200 64 232 0.9 2.6 0.00 0.00 0.00 80 1017.0
20260506034659 64 203 2.6 3.5 0.00 0.00 0.00 80 1017.0
20260506034202 64 201 2.6 4.3 0.00 0.00 0.00 79 1017.0
20260506033700 64 202 3.5 5.2 0.00 0.00 0.00 79 1017.0
20260506033203 65 202 3.5 5.2 0.00 0.00 0.00 78 1017.0
20260506032700 65 201 3.5 6.1 0.00 0.00 0.00 78 1017.0
20260506032200 65 203 2.6 5.2 0.00 0.00 0.00 78 1017.0
20260506031700 65 217 1.7 3.5 0.00 0.00 0.00 78 1017.0
20260506031210 65 186 1.7 4.3 0.00 0.00 0.00 78 1017.0
20260506030700 65 161 2.6 3.5 0.00 0.00 0.00 78 1017.0
20260506030203 65 186 5.2 8.7 0.00 0.00 0.00 78 1018.0
20260506025703 65 193 2.6 4.3 0.00 0.00 0.00 77 1018.0
20260506025201 65 198 2.6 3.5 0.00 0.00 0.00 78 1018.0
20260506024700 65 210 3.5 4.3 0.00 0.00 0.00 78 1018.0
20260506024201 65 183 3.5 5.2 0.00 0.00 0.00 78 1018.0
20260506023700 65 187 1.7 3.5 0.00 0.00 0.00 77 1017.0
20260506023159 65 194 1.7 3.5 0.00 0.00 0.00 77 1017.0
20260506022702 65 161 3.5 4.3 0.00 0.00 0.00 77 1017.0
20260506022201 65 177 2.6 3.5 0.00 0.00 0.00 76 1018.0
20260506021700 65 189 3.5 4.3 0.00 0.00 0.00 77 1018.0
20260506021203 65 205 0.0 1.7 0.00 0.00 0.00 76 1017.0
20260506020702 65 173 2.6 4.3 0.00 0.00 0.00 76 1017.0
20260506020202 66 203 2.6 4.3 0.00 0.00 0.00 75 1017.0
20260506015701 66 193 3.5 4.3 0.00 0.00 0.00 76 1017.0
20260506015159 66 187 4.3 7.0 0.00 0.00 0.00 75 1017.0
20260506014701 66 156 1.7 3.5 0.00 0.00 0.00 75 1017.0
20260506014201 66 173 3.5 4.3 0.00 0.00 0.00 75 1017.0
20260506013701 66 183 3.5 5.2 0.00 0.00 0.00 75 1017.0
20260506013200 66 178 2.6 4.3 0.00 0.00 0.00 75 1017.0
20260506012659 66 191 2.6 4.3 0.00 0.00 0.00 74 1017.0
20260506012201 67 173 2.6 3.5 0.00 0.00 0.00 74 1017.0
20260506011702 67 182 1.7 3.5 0.00 0.00 0.00 74 1017.0
20260506011202 67 179 1.7 3.5 0.00 0.00 0.00 73 1017.0
20260506010702 67 184 2.6 5.2 0.00 0.00 0.00 73 1017.0
20260506010202 67 161 1.7 3.5 0.00 0.00 0.00 72 1017.0
20260506005701 67 187 3.5 6.1 0.00 0.00 0.00 72 1017.0
20260506005202 68 166 3.5 5.2 0.00 0.00 0.00 72 1017.0
20260506004701 68 194 4.3 7.8 0.00 0.00 0.00 71 1017.0
20260506004201 68 183 4.3 7.8 0.00 0.00 0.00 71 1017.0
20260506003701 68 194 2.6 4.3 0.00 0.00 0.00 71 1017.0
20260506003203 68 163 3.5 5.2 0.00 0.00 0.00 70 1017.0
20260506002702 68 188 2.6 4.3 0.00 0.00 0.00 70 1017.0
20260506002201 68 197 5.2 8.7 0.00 0.00 0.00 70 1017.0
20260506001701 69 213 1.7 4.3 0.00 0.00 0.00 70 1017.0
20260506001200 69 209 0.9 2.6 0.00 0.00 0.00 69 1017.0
20260506000702 69 179 0.9 2.6 0.00 0.00 0.00 69 1017.0
20260506000204 69 185 0.9 3.5 0.00 0.00 0.00 68 1017.0
20260505235703 70 198 4.3 7.8 0.00 0.00 0.00 67 1017.0
20260505235203 70 205 4.3 7.0 0.00 0.00 0.00 67 1017.0
20260505234702 70 193 4.3 7.0 0.00 0.00 0.00 66 1017.0
20260505234200 70 176 4.3 6.1 0.00 0.00 0.00 66 1016.0
20260505233701 71 186 4.3 6.1 0.00 0.00 0.00 65 1016.0
20260505233200 71 191 4.3 7.8 0.00 0.00 0.00 65 1016.0
20260505232659 71 195 6.1 7.8 0.00 0.00 0.00 64 1016.0
20260505232200 72 199 2.6 3.5 0.00 0.00 0.00 64 1016.0
20260505231702 72 184 6.1 11.3 0.00 0.00 0.00 64 1016.0
20260505231201 72 173 3.5 6.1 0.00 0.00 0.00 65 1016.0
20260505230702 72 166 3.5 6.1 0.00 0.00 0.00 65 1016.0
20260505230203 72 163 3.5 9.6 0.00 0.00 0.00 64 1016.0
20260505225701 72 197 6.1 9.6 0.00 0.00 0.00 65 1016.0
20260505225200 73 178 2.6 4.3 0.00 0.00 0.00 65 1016.0
20260505224659 73 180 5.2 9.6 0.00 0.00 0.00 64 1016.0
20260505224159 74 192 5.2 12.2 0.00 0.00 0.00 63 1016.0
20260505223659 74 211 3.5 7.0 0.00 0.00 0.00 63 1016.0
20260505223202 74 177 4.3 7.0 0.00 0.00 0.00 63 1016.0
20260505222701 74 160 5.2 7.0 0.00 0.00 0.00 62 1016.0
20260505222200 75 186 6.1 10.4 0.00 0.00 0.00 62 1016.0
20260505221228 75 173 2.6 5.2 0.00 0.00 0.00 61 1016.0
20260505220701 75 180 4.3 7.0 0.00 0.00 0.00 60 1016.0
20260505220202 75 191 7.0 11.3 0.00 0.00 0.00 60 1016.0
20260505215701 75 188 7.8 12.2 0.00 0.00 0.00 60 1016.0
20260505215202 76 190 7.0 10.4 0.00 0.00 0.00 59 1016.0
20260505214700 76 170 7.0 11.3 0.00 0.00 0.00 58 1016.0
20260505214201 76 184 4.3 7.0 0.00 0.00 0.00 57 1016.0
20260505213701 76 178 5.2 9.6 0.00 0.00 0.00 58 1016.0
20260505213203 76 205 5.2 7.8 0.00 0.00 0.00 59 1016.0
20260505212701 77 200 7.8 9.6 0.00 0.00 0.00 57 1016.0
20260505212203 77 179 4.3 7.8 0.00 0.00 0.00 57 1016.0
20260505211703 77 173 6.1 8.7 0.00 0.00 0.00 56 1016.0
20260505211203 76 194 4.3 7.0 0.00 0.00 0.00 57 1016.0
20260505210703 76 196 5.2 8.7 0.00 0.00 0.00 57 1016.0
20260505210204 76 204 3.5 7.0 0.00 0.00 0.00 58 1016.0
20260505205703 77 189 5.2 11.3 0.00 0.00 0.00 57 1016.0
20260505205201 78 191 5.2 8.7 0.00 0.00 0.00 56 1016.0
20260505204703 77 191 6.1 12.2 0.00 0.00 0.00 56 1016.0
20260505204203 77 190 4.3 10.4 0.00 0.00 0.00 55 1016.0
20260505203701 77 203 4.3 8.7 0.00 0.00 0.00 56 1016.0
20260505203203 78 187 7.8 9.6 0.00 0.00 0.00 54 1016.0
20260505202702 78 175 6.1 7.8 0.00 0.00 0.00 54 1016.0
20260505202203 78 186 4.3 7.8 0.00 0.00 0.00 54 1016.0
20260505201703 78 184 4.3 8.7 0.00 0.00 0.00 54 1016.0
20260505201202 78 193 4.3 7.8 0.00 0.00 0.00 54 1016.0
20260505200703 79 191 4.3 7.8 0.00 0.00 0.00 52 1016.0
20260505200204 79 187 6.1 9.6 0.00 0.00 0.00 53 1016.0
20260505195703 79 205 3.5 6.1 0.00 0.00 0.00 54 1016.0
20260505195203 79 202 7.8 11.3 0.00 0.00 0.00 52 1016.0
20260505194701 79 187 4.3 8.7 0.00 0.00 0.00 52 1016.0
20260505194201 80 187 7.8 10.4 0.00 0.00 0.00 50 1017.0
20260505193701 80 210 5.2 8.7 0.00 0.00 0.00 52 1017.0
20260505193202 80 204 5.2 8.7 0.00 0.00 0.00 50 1017.0
20260505192701 81 185 6.1 9.6 0.00 0.00 0.00 50 1017.0
20260505192202 81 247 2.6 4.3 0.00 0.00 0.00 52 1017.0
20260505191701 81 210 4.3 6.1 0.00 0.00 0.00 50 1017.0
20260505191202 81 208 2.6 4.3 0.00 0.00 0.00 50 1017.0
20260505190701 81 205 3.5 6.1 0.00 0.00 0.00 51 1017.0
20260505190200 81 214 4.3 7.8 0.00 0.00 0.00 50 1017.0
20260505185703 81 190 3.5 6.1 0.00 0.00 0.00 51 1017.0
20260505185202 80 217 3.5 6.1 0.00 0.00 0.00 51 1017.0
20260505184701 80 183 6.1 9.6 0.00 0.00 0.00 51 1017.0
20260505184203 80 194 7.8 10.4 0.00 0.00 0.00 49 1017.0
20260505183702 81 167 5.2 7.8 0.00 0.00 0.00 48 1017.0
20260505183203 80 190 5.2 9.6 0.00 0.00 0.00 48 1017.0
20260505182701 80 183 1.7 4.3 0.00 0.00 0.00 49 1017.0
20260505182200 80 194 5.2 9.6 0.00 0.00 0.00 49 1017.0
20260505181701 80 198 5.2 8.7 0.00 0.00 0.00 50 1017.0
20260505181201 80 165 7.8 12.2 0.00 0.00 0.00 49 1017.0
20260505180701 79 227 5.2 8.7 0.00 0.00 0.00 50 1017.0
20260505180201 79 183 6.1 8.7 0.00 0.00 0.00 49 1018.0
20260505175700 78 204 4.3 7.0 0.00 0.00 0.00 52 1018.0
20260505175204 79 212 3.5 7.0 0.00 0.00 0.00 53 1017.0
20260505174702 78 217 3.5 7.8 0.00 0.00 0.00 52 1017.0
20260505174204 79 211 4.3 7.0 0.00 0.00 0.00 52 1018.0
20260505173704 79 190 4.3 7.8 0.00 0.00 0.00 50 1018.0
20260505173204 79 173 4.3 7.8 0.00 0.00 0.00 51 1018.0
20260505172704 79 187 5.2 7.8 0.00 0.00 0.00 51 1018.0
20260505172203 79 178 3.5 6.1 0.00 0.00 0.00 52 1018.0
20260505171704 79 184 5.2 8.7 0.00 0.00 0.00 53 1018.0
20260505171202 79 197 2.6 4.3 0.00 0.00 0.00 54 1018.0
20260505170702 78 203 4.3 7.8 0.00 0.00 0.00 53 1018.0
20260505170159 78 224 3.5 7.0 0.00 0.00 0.00 54 1018.0
20260505165702 78 203 3.5 5.2 0.00 0.00 0.00 55 1018.0
20260505165201 78 182 7.0 8.7 0.00 0.00 0.00 53 1018.0
20260505164702 78 250 1.7 3.5 0.00 0.00 0.00 57 1018.0
20260505164201 78 192 5.2 7.8 0.00 0.00 0.00 55 1018.0
20260505163703 78 182 5.2 7.8 0.00 0.00 0.00 55 1018.0
20260505163202 78 198 4.3 7.8 0.00 0.00 0.00 55 1018.0
20260505162702 77 207 3.5 6.1 0.00 0.00 0.00 55 1018.0
20260505162201 77 174 4.3 7.8 0.00 0.00 0.00 55 1018.0
20260505161702 77 206 6.1 7.8 0.00 0.00 0.00 55 1019.0
20260505161201 77 205 6.1 7.8 0.00 0.00 0.00 55 1019.0
20260505160701 76 190 3.5 7.8 0.00 0.00 0.00 57 1019.0
20260505160201 76 252 1.7 4.3 0.00 0.00 0.00 57 1019.0
20260505153202 75 190 5.2 7.0 0.00 0.00 0.00 57 1019.0
20260505152703 76 176 5.2 8.7 0.00 0.00 0.00 57 1019.0
20260505152202 76 216 5.2 7.8 0.00 0.00 0.00 57 1019.0
20260505151704 75 176 3.5 6.1 0.00 0.00 0.00 58 1019.0
20260505151203 75 186 3.5 6.1 0.00 0.00 0.00 58 1019.0
20260505150701 75 176 5.2 7.8 0.00 0.00 0.00 59 1019.0
20260505150201 75 193 5.2 8.7 0.00 0.00 0.00 57 1019.0
20260505140202 73 182 3.5 5.2 0.00 0.00 0.00 63 1019.0
20260505130204 68 223 3.5 7.0 0.00 0.00 0.00 71 1019.0
20260505124701 67 175 3.5 4.3 0.00 0.00 0.00 73 1019.0